Mount Isa, Australia
Current Conditions -  °F | °C
As of 12:00 AM on Friday 24 Oct 2014 (Local Time) from YBMA Reporting Station
Clear Clear  
Wind Chill: 82°   Ceiling: Unl
Heat Index: 82°   Visibility: 6mi
Dew Point: 39°   Wind: 6mph
Humidity: 21%   Direction: 80°E
Pressure: 30"   Gusts: NA
Location:  20.73°S, 139.49°E
Report Text: YBMA 231400Z AUTO 08005KT 9999 // NCD 28/04 Q1016
Loading
Personal Weather Stations






























Interactive Weather Map
Tropical Storm Tracking
New forecast layout! Learn more

10-Day Weather Forecast

Advertisements
Track Severe Weather on mobile